Flag for U.S.A. Weather past 2 weeks in Elizabeth, New Jersey, U.S.A.

Now
46 °F

More clouds than sun.


Feels Like: 43 °F
Forecast: 38 / 52 °F
Wind: 6 mph from South

Location: Newark International Airport


UV Index: 0 (Low)

Visibility: 10 mi


Pressure: 30.45 "Hg

Humidity: 51%

Dew point: 29 °F

Location of ElizabethLocation

Historic Weather in Elizabeth

°F

Elizabeth temperature yesterday

Maximum temperature yesterday: 46 °F (at 11:51 AM)
Minimum temperature yesterday: 34 °F (at 4:51 AM)
Average temperature yesterday: 41 °F

Past Weeks' High & Low Weather Summary

 TemperatureHumidityPressure
High83 °F (Apr 13, 2:51 PM)100% (Apr 7, 10:51 PM)30.73 "Hg (Apr 7, 10:51 PM)
Low31 °F (Apr 16, 5:51 AM)17% (Apr 6, 4:51 PM)29.40 "Hg (Apr 8, 12:51 PM)
Average52 °F57%30.04 "Hg
* Reported Apr 3 1:51 PM — Apr 18 1:51 PM, Elizabeth, Weather by CustomWeather, © 2014

Note: Actual official high and low records may vary slightly from our data, if they occured in-between our weather recording intervals... More about our weather records

Advertising

Historic Weather Conditions — Data for Previous 24 hours

 ConditionsComfort  
Time TempWeatherWind HumidityBarometerVisibility
1:51 PM
Apr 18
46 °FMore clouds than sun.6 mph51%30.45 "Hg10 mi
12:51 PM44 °FMore clouds than sun.No wind51%30.47 "Hg10 mi
11:51 AM43 °FBroken clouds.5 mph56%30.48 "Hg10 mi
10:51 AM42 °FMore clouds than sun.3 mph57%30.50 "Hg10 mi
9:51 AM41 °FBroken clouds.8 mph60%30.53 "Hg10 mi
8:51 AM39 °FBroken clouds.3 mph67%30.55 "Hg10 mi
7:51 AM37 °FBroken clouds.7 mph70%30.55 "Hg10 mi
6:51 AM37 °FPassing clouds.10 mph67%30.53 "Hg10 mi
5:51 AM38 °FOvercast.8 mph68%30.51 "Hg10 mi
4:51 AM38 °FMostly cloudy.8 mph68%30.50 "Hg10 mi
3:51 AM39 °FMostly cloudy.6 mph65%30.55 "Hg10 mi
2:51 AM39 °FMostly cloudy.6 mph67%30.58 "Hg10 mi
1:51 AM39 °FPassing clouds.5 mph65%30.61 "Hg10 mi
12:51 AM40 °FPassing clouds.8 mph58%30.60 "Hg10 mi
11:51 PM
Apr 17
41 °FPassing clouds.9 mph62%30.60 "Hg10 mi
10:51 PM41 °FPassing clouds.6 mph70%30.61 "Hg10 mi
9:51 PM41 °FPassing clouds.8 mph70%30.63 "Hg10 mi
8:51 PM41 °FPassing clouds.7 mph67%30.65 "Hg10 mi
7:51 PM42 °FBroken clouds.8 mph65%30.64 "Hg10 mi
6:51 PM43 °FBroken clouds.9 mph60%30.65 "Hg10 mi
5:51 PM44 °FBroken clouds.12 mph58%30.66 "Hg10 mi
4:51 PM45 °FBroken clouds.10 mph56%30.67 "Hg10 mi
3:51 PM45 °FBroken clouds.10 mph56%30.68 "Hg10 mi
2:51 PM45 °FBroken clouds.9 mph58%30.70 "Hg10 mi
Weather by CustomWeather, © 2014

See weather overview